STARLINK-38189, 100213

Orbit data source: Space-Track

STARLINK-38189, 100213 is a payload satellite owned by SpaceX/Seattle (US) in SSO that was launched on Tue, 04 Aug 2026 UTC launched from the Air Force Western Test Range (AFWTR). Payload-class satellites include a variety of spacecraft equipped with specific instruments for various scientific and technological missions. These include communications satellites like Starlink; space stations such as the ISS; scientific satellites like the Hubble; Earth observation satellites from companies like Planet Labs, Umbra, and HawkEye 360; GPS; miniature CubeSats for education and research; and military/defense satellites.

Loading next visibility...
Identifier
100213, 2026-177A
Orbit
SSO
Country
Flag of USUS
Related business
Manufacturer
SpaceX/Seattle
Mission
Operational spacecraft
Bus & Motor
STARLINK V2MO, Unknown motor
Mass
575 kg wet, ~530 kg dry
Launch date (UTC)
2026-08-04 (1 month ago)
Launch vehicle
Unknown
Launch site
Air Force Western Test Range (AFWTR)
Object type
Payload
Rocket body
Debris
Shape & HBR
BOX + PAN, 17.7 m
Radar Cross Section
Large (>1 m²)

Expand to show TLE details & history
Last TLE update: 6 hours ago

TLE from 6 hours ago
0 STARLINK-38189
1 A0213U 26177A   26255.94603548  .00030922  00000-0  56713-3 0  9999
2 A0213  97.2833 306.7103 0001592 107.2589 252.8836 15.49232333  6194
Epoch: 2026-09-12T22:42Z
TLE epoch observation values (Epoch: 2026-09-12T22:42:17.465Z)
Latitude
-0.00008°
Longitude
-25.81021°
Altitude
422.423 km
Speed
7.658 km/s
True Right ascension
20h 26m 50s
True Declination
0° 00' 00"
Sunlit
Object was in full shadow at epoch
Visualization orbit readout
Latitude
Unknown
Longitude
Unknown
Altitude
Unknown
Speed
Unknown
Apparent Right ascension
Unknown
Apparent Declination
Unknown
Sunlit
N/A
Visualization observer readout
Local Sidereal Time
21:37:50
Azimuth
Unknown
Elevation
Unknown
Doppler factor
Unknown
Orbital elements
Apogee altitude
416.974 km
Perigee altitude
414.811 km
Semi-major axis
6,794.029 km
Eccentricity
0.00016
Inclination
97.2833°
RAAN
306.7103°
Arg. of periapsis
107.2589°
True anomaly
252.86617°
Mean anomaly
252.8836°
Eccentric anomaly
252.87488°
Mean motion
3.87572 °/min
Orbital period
92.89 mins
BSTAR
0.00056713
Loading maneuver chart data...
Computing Atmospheric mass density...
Loading historical data...
Loading historical data...
Loading historical data...
Loading historical data...
Loading historical data...
Loading historical data...
Loading historical data...

Documentation

Showing up to 5 results
|